[[{"header":{"parameterUnit":"m.s-1","parameterCategory":1,"la1":30.2991,"la2":30.254,"lo1":-89.0895,"lo2":-89.0444,"dy":0.0017,"dx":0.0017,"nx":28,"ny":28,"refTime":"2024-02-06T09:00:00:Z","depth":0,"parameterNumber":2,"parameterNumberName":"U-component_of_WINDS"},"data":[0,0,0,0,0,0,0,0,0,0,0,0,0,0,0,0,0,0,0,0,0,0,0,0,0,0,0,0,0,0,0,0,0,0,0,0,0,0,0,0,0,0,0,0,0,0,0,0,0,0,0,0,0,0,0,0,0,0,-3.9928,-3.993,0,-4.0111,-4.0113,-4.0116,-4.0129,-4.0127,-4.0125,-4.0123,-4.0312,-4.0319,-4.0326,0,0,0,0,0,0,0,0,0,0,0,0,0,-3.959,-3.9597,-3.9927,-3.993,-3.9932,-4.0111,-4.0114,-4.0116,-4.0129,-4.0127,-4.0124,-4.0122,-4.031,-4.0318,-4.0326,0,0,0,0,0,0,0,0,0,0,0,0,0,-3.9752,-3.9599,-3.9927,-3.996,-3.9965,-4.011,-4.0114,-4.0117,-4.013,-4.0127,-4.0124,-4.0121,-4.0307,-4.0317,-4.0327,-4.0452,0,0,-4.0359,-4.0364,0,0,0,0,0,0,0,0,-3.9743,-3.9764,-3.9953,-3.9958,-3.9964,-4.0094,-4.0064,-4.0229,-4.0131,-4.0067,-4.0123,-4.0119,-4.0242,-4.0258,-4.0299,-4.0461,-4.0469,-4.036,-4.0366,-4.0371,-4.0374,0,0,0,0,0,0,0,-3.9731,-3.9756,-4.0,-3.9956,-3.9962,-3.9967,-3.9986,-4.0095,-4.017,-4.0073,-4.0074,-4.0096,-4.0244,-4.0289,-4.0303,-4.0472,-4.036,-4.0369,-4.0375,-4.0379,-4.0748,-4.0751,0,0,0,0,0,0,-3.9714,-3.9747,-3.9994,-4.0006,-3.9843,-3.9975,-3.9997,-4.0055,-4.0168,-4.0183,-4.0098,-4.0096,-4.0272,-4.0291,-4.031,-4.0463,-4.0371,-4.038,-4.0386,-4.0744,-4.0748,-4.0752,0,0,0,0,0,0,-3.9706,-3.9736,-3.9987,-3.9877,-3.9909,-3.9984,-4.005,-4.0061,-4.0105,-4.0188,-4.0201,-4.0129,-4.0271,-4.0295,-4.0417,-4.047,-4.0385,-4.0394,-4.074,-4.0745,-4.075,-4.0771,0,0,0,0,0,0,-3.9697,-3.9733,-3.978,-3.9878,-3.9915,-4.009,-4.0053,-4.0066,-4.0123,-4.0121,-4.0221,-4.0234,-4.027,-4.0401,-4.0427,-4.0483,-4.0403,-4.0735,-4.0742,-4.0749,-4.0766,-4.0776,-4.0785,0,0,0,0,0,-3.9685,-3.9779,-3.9783,-3.9812,-3.9976,-4.0093,-4.0114,-4.0154,-4.0127,-4.0175,-4.0229,-4.0231,-4.0461,-4.0414,-4.0443,-4.0502,-4.0732,-4.074,-4.0748,-4.0761,-4.0774,-4.0785,0,0,0,0,0,0,-3.9685,-3.9792,-3.9797,-3.9926,-4.0,-4.0095,-4.0157,-4.0166,-4.025,-4.0245,-4.0291,-4.0313,-4.0433,-4.0481,-4.0426,-4.063,-4.0594,-4.0608,-4.0594,-4.0607,-4.0616,-4.0601,-4.0411,0,0,0,0,0,-3.97,-3.9786,-3.9875,-3.998,-4.0017,-4.0081,-4.0134,-4.0158,-4.0237,-4.0268,-4.0331,-4.0408,-4.0498,-4.0555,-4.0642,-4.0774,-4.0796,-4.083,-4.084,-4.0847,-4.0858,-4.0931,-4.0947,-4.0778,-4.0778,-4.0778,0,0,-3.9732,-3.9801,-3.9852,-3.9982,-4.0042,-4.0131,-4.0107,-4.0201,-4.0267,-4.0283,-4.0401,-4.045,-4.0539,-4.0666,-4.0726,-4.0709,-4.091,-4.0857,-4.0863,-4.087,-4.0941,-4.0957,-4.0971,-4.0784,-4.0783,-4.0782,0,0,-3.9834,-3.9896,-3.999,-4.0051,-4.0144,-4.0186,-4.0209,-4.0303,-4.0336,-4.0456,-4.0469,-4.055,-4.0703,-4.0766,-4.0818,-4.0948,-4.0953,-4.0976,-4.1025,-4.1096,-4.111,-4.1121,-4.1167,-4.1182,-4.0987,-4.0987,-4.0987,0,-3.9862,-3.9995,-4.0037,-4.0131,-4.0188,-4.0207,-4.0303,-4.0361,-4.0477,-4.0516,-4.0497,-4.0691,-4.0753,-4.0895,-4.0926,-4.0969,-4.0996,-4.0963,-4.1104,-4.1117,-4.1128,-4.1172,-4.1189,-4.0989,-4.0989,-4.0989,-4.0988,0,-4.0024,-4.0116,-4.0181,-4.0292,-4.0357,-4.0452,-4.0509,-4.057,-4.059,-4.0635,-4.0757,-4.0832,-4.0935,-4.0971,-4.0992,-4.1117,-4.1104,-4.1095,-4.1058,-4.1146,-4.1187,-4.1204,-4.0992,-4.0991,-4.0991,-4.099,0,0,-4.0128,-4.0263,-4.0286,-4.0337,-4.0442,-4.0514,-4.0611,-4.0712,-4.0762,-4.0844,-4.0925,-4.1056,-4.1048,-4.1108,-4.1136,-4.1199,-4.1296,-4.1182,-4.1184,-4.1198,-4.1438,-4.1442,-4.1461,-4.1301,-4.1305,-4.1308,-4.143,0,-4.024,-4.041,-4.0453,-4.0599,-4.0684,-4.0706,-4.079,-4.0864,-4.091,-4.099,-4.1041,-4.1132,-4.1116,-4.1152,-4.1215,-4.127,-4.1344,-4.1263,-4.1377,-4.1381,-4.1351,-4.1483,-4.1488,-4.1599,-4.1447,-4.145,-4.1452,0,-4.0393,-4.0476,-4.0631,-4.0725,-4.0763,-4.0837,-4.0934,-4.1011,-4.1096,-4.1125,-4.1192,-4.1215,-4.1318,-4.1279,-4.1421,-4.1364,-4.1415,-4.145,-4.1455,-4.1464,-4.1419,-4.1494,-4.1636,-4.1652,-4.1478,-4.1476,-4.1474,0,-4.045,-4.0602,-4.0714,-4.0758,-4.0871,-4.0923,-4.0973,-4.1056,-4.1114,-4.1199,-4.1238,-4.1334,-4.1386,-4.1461,-4.1509,-4.1477,-4.1647,-4.1613,-4.1673,-4.1672,-4.1705,-4.1701,-4.1854,-4.1742,-4.1742,-4.1742,-4.1741,0,-4.0569,-4.0662,-4.0742,-4.081,-4.0916,-4.0965,-4.1069,-4.1119,-4.1193,-4.1272,-4.1299,-4.1373,-4.1434,-4.1517,-4.1556,-4.1667,-4.1692,-4.1718,-4.1726,-4.1713,-4.171,-4.1744,-4.1737,-4.1746,-4.1745,-4.1744,-4.1743,0,-4.065,-4.0707,-4.083,-4.0928,-4.0955,-4.1029,-4.1113,-4.1181,-4.1229,-4.133,-4.1356,-4.1431,-4.153,-4.1587,-4.1713,-4.1739,-4.1862,-4.1869,-4.1833,-4.1836,-4.1892,-4.1885,-4.2071,-4.2097,-4.1969,-4.197,-4.1971,0,-4.072,-4.0792,-4.0899,-4.0954,-4.1004,-4.1093,-4.1153,-4.1206,-4.1267,-4.1371,-4.1427,-4.1528,-4.1611,-4.1769,-4.1835,-4.1931,-4.1939,-4.1997,-4.1953,-4.1938,-4.1937,-4.1931,-4.1938,-4.2003,-4.2004,-4.2005,-4.2006,0,-4.0839,-4.0864,-4.0949,-4.1045,-4.1115,-4.1193,-4.1271,-4.1315,-4.1381,-4.1449,-4.1551,-4.1615,-4.1744,-4.1844,-4.1946,-4.1999,-4.2014,-4.202,-4.2039,-4.2025,-4.2,-4.2013,-4.185,-4.2015,-4.2014,-4.2013,-4.2013,-4.2012,-4.0915,-4.098,-4.1065,-4.116,-4.1224,-4.1296,-4.1365,-4.1422,-4.1508,-4.1615,-4.1643,-4.1749,-4.1835,-4.1974,-4.203,-4.2115,-4.2105,-4.2132,-4.2139,-4.2144,-4.2145,-4.199,-4.2135,-4.2134,-4.2134,-4.2134,-4.2134,0,-4.1033,-4.109,-4.1176,-4.1284,-4.1358,-4.1367,-4.1454,-4.1516,-4.1609,-4.1688,-4.177,-4.1888,-4.1986,-4.2061,-4.2161,-4.2215,-4.2224,-4.2239,-4.2234,-4.2246,-4.2149,-4.2122,-4.223,-4.223,-4.223,-4.223,-4.223,-4.223,-4.1103,-4.1213,-4.1249,-4.1393,-4.1449,-4.1554,-4.1602,-4.167,-4.1733,-4.1863,-4.1944,-4.1993,-4.2071,-4.2177,-4.2268,-4.2288,-4.2323,-4.2336,-4.2357,-4.2264,-4.2253,-4.2243,-4.2217,-4.2344,-4.2344,-4.2446,-4.2447,-4.2448]},{"header":{"parameterUnit":"m.s-1","parameterCategory":1,"la1":30.2991,"la2":30.254,"lo1":-89.0895,"lo2":-89.0444,"dy":0.0017,"dx":0.0017,"nx":28,"ny":28,"refTime":"2024-02-06T09:00:00:Z","depth":0,"parameterNumber":3,"parameterNumberName":"V-component_of_WINDS"},"data":[0,0,0,0,0,0,0,0,0,0,0,0,0,0,0,0,0,0,0,0,0,0,0,0,0,0,0,0,0,0,0,0,0,0,0,0,0,0,0,0,0,0,0,0,0,0,0,0,0,0,0,0,0,0,0,0,0,0,2.8444,2.8445,0,2.858,2.8582,2.8583,2.8584,2.8582,2.858,2.8579,2.8716,2.8721,2.8726,0,0,0,0,0,0,0,0,0,0,0,0,0,2.8181,2.8186,2.8443,2.8445,2.8447,2.858,2.8582,2.8584,2.8584,2.8582,2.858,2.8578,2.8714,2.872,2.8726,0,0,0,0,0,0,0,0,0,0,0,0,0,2.8304,2.8187,2.8443,2.8463,2.8466,2.858,2.8582,2.8584,2.8584,2.8582,2.8579,2.8577,2.8712,2.8719,2.8727,2.8829,0,0,2.8751,2.8755,0,0,0,0,0,0,0,0,2.8297,2.8314,2.8458,2.8462,2.8466,2.8562,2.854,2.8666,2.8585,2.8539,2.8578,2.8575,2.8666,2.8678,2.8709,2.8835,2.8841,2.8752,2.8757,2.876,2.8763,0,0,0,0,0,0,0,2.8288,2.8308,2.8497,2.8461,2.8465,2.8465,2.8479,2.8564,2.8616,2.8543,2.8544,2.856,2.8668,2.8702,2.8713,2.8843,2.8752,2.8759,2.8764,2.8767,2.9062,2.9065,0,0,0,0,0,0,2.8276,2.8301,2.8493,2.8502,2.8373,2.8472,2.8488,2.8534,2.8615,2.8625,2.8562,2.8559,2.8689,2.8703,2.8717,2.8843,2.876,2.8768,2.8772,2.9059,2.9063,2.9066,0,0,0,0,0,0,2.827,2.8293,2.8488,2.8401,2.8426,2.8479,2.8531,2.8538,2.8572,2.8629,2.8638,2.8587,2.8688,2.8706,2.8802,2.8848,2.8771,2.8779,2.9055,2.906,2.9064,2.9095,0,0,0,0,0,0,2.8263,2.8291,2.8331,2.8402,2.8431,2.857,2.8533,2.8543,2.8586,2.8584,2.8655,2.8665,2.8687,2.879,2.881,2.8857,2.8785,2.9051,2.9057,2.9063,2.909,2.91,2.9108,0,0,0,0,0,2.8254,2.8332,2.8333,2.8356,2.8481,2.8573,2.8589,2.8615,2.8589,2.863,2.8667,2.8662,2.884,2.88,2.8822,2.8873,2.9049,2.9056,2.9062,2.9086,2.9098,2.9108,0,0,0,0,0,0,2.8263,2.8342,2.8343,2.8448,2.8504,2.8573,2.8624,2.8626,2.869,2.8685,2.8713,2.8729,2.8825,2.8858,2.8813,2.8977,2.8941,2.8953,2.8951,2.8963,2.8972,2.8962,2.8791,0,0,0,0,0,2.8278,2.8346,2.8412,2.8498,2.8526,2.857,2.8611,2.8626,2.8685,2.8708,2.8753,2.8809,2.8878,2.8922,2.8989,2.9095,2.9111,2.9141,2.915,2.9157,2.9167,2.9227,2.9241,2.9089,2.9089,2.9089,0,0,2.8308,2.836,2.8401,2.8501,2.8546,2.8617,2.859,2.8665,2.8718,2.8719,2.8813,2.8848,2.8913,2.9015,2.9062,2.9046,2.9213,2.9166,2.9172,2.9177,2.9236,2.925,2.9263,2.9093,2.9093,2.9092,0,0,2.8399,2.8445,2.8522,2.8569,2.8639,2.8668,2.8687,2.8757,2.878,2.8875,2.8879,2.8941,2.9058,2.9105,2.9144,2.9256,2.9255,2.9277,2.9325,2.9383,2.9395,2.9406,2.9447,2.9461,2.9287,2.9287,2.9287,0,2.8427,2.8534,2.8562,2.8638,2.8682,2.8689,2.8768,2.8812,2.8899,2.8929,2.891,2.9059,2.9103,2.9217,2.9245,2.9276,2.9299,2.9269,2.9392,2.9403,2.9413,2.9452,2.9467,2.9289,2.9289,2.9289,2.9288,0,2.8566,2.864,2.8695,2.8781,2.8831,2.8908,2.8947,2.8995,2.9006,2.9038,2.9135,2.9189,2.9267,2.9295,2.9306,2.9411,2.9399,2.9386,2.9351,2.943,2.9467,2.9482,2.9292,2.9291,2.9291,2.929,0,0,2.8665,2.8768,2.8787,2.8827,2.8906,2.8963,2.9041,2.9119,2.916,2.922,2.9287,2.9387,2.9376,2.9421,2.9437,2.9489,2.9575,2.9469,2.9471,2.9487,2.9695,2.9705,2.9722,2.9575,2.9578,2.958,2.969,0,2.8765,2.8905,2.8933,2.9053,2.9123,2.9132,2.92,2.9255,2.9288,2.9351,2.9386,2.9457,2.9437,2.9464,2.9515,2.9554,2.9617,2.9546,2.9637,2.964,2.962,2.9741,2.9752,2.9852,2.9705,2.9707,2.9709,0,2.89,2.8966,2.9094,2.9165,2.9195,2.9256,2.9331,2.9391,2.9455,2.9475,2.9526,2.9538,2.9619,2.9581,2.9694,2.9645,2.9684,2.9709,2.9714,2.9723,2.9679,2.9754,2.9885,2.99,2.9732,2.973,2.9729,0,2.896,2.9081,2.9173,2.9207,2.9293,2.9335,2.9373,2.9434,2.948,2.9545,2.9575,2.9648,2.9689,2.9745,2.9777,2.9746,2.9888,2.9852,2.9906,2.9906,2.9935,2.9933,3.0075,2.996,2.996,2.996,2.996,0,2.9068,2.9146,2.9202,2.9259,2.9347,2.9379,2.9466,2.9502,2.9557,2.9622,2.9634,2.9694,2.9731,2.9797,2.9822,2.9913,2.993,2.9949,2.9954,2.9948,2.9945,2.9973,2.9967,2.9964,2.9963,2.9962,2.9962,0,2.915,2.919,2.9292,2.9366,2.9386,2.9448,2.9511,2.9567,2.96,2.9681,2.9702,2.9754,2.9832,2.9869,2.9965,2.9982,3.0085,3.0086,3.0064,3.0066,3.0119,3.0114,3.0284,3.0308,3.0177,3.0178,3.0179,0,2.9217,2.9277,2.9358,2.9403,2.9442,2.9513,2.9561,2.9595,2.9644,2.9723,2.9769,2.9848,2.9913,3.0038,3.0083,3.0157,3.016,3.0215,3.0171,3.0163,3.0162,3.0158,3.0165,3.0222,3.0224,3.0225,3.0225,0,2.9331,2.9348,2.9417,2.9493,2.955,2.9611,2.9672,2.9707,2.9751,2.9806,2.9887,2.9937,3.0037,3.0115,3.0193,3.0231,3.0236,3.0239,3.0256,3.025,3.0235,3.0244,3.0085,3.0235,3.0234,3.0233,3.0233,3.0232,2.9407,2.9462,2.9529,2.9605,2.9655,2.9711,2.9768,2.9809,2.9878,2.9962,2.9978,3.0064,3.0128,3.0234,3.0275,3.0342,3.033,3.0354,3.036,3.0365,3.0369,3.0224,3.0357,3.0356,3.0356,3.0356,3.0356,0,2.9523,2.9566,2.9636,2.9722,2.9782,2.9783,2.985,2.9901,2.9977,3.0036,3.0101,3.0195,3.0272,3.0324,3.0402,3.0447,3.0451,3.0466,3.0463,3.0472,3.0375,3.0353,3.0461,3.0461,3.0461,3.0461,3.0461,3.0461,2.959,2.9684,2.9709,2.9828,2.9871,2.9957,2.9995,3.0048,3.0096,3.0201,3.0265,3.03,3.0357,3.044,3.0511,3.0524,3.0552,3.0568,3.0581,3.049,3.0478,3.0468,3.0448,3.0574,3.0574,3.0673,3.0674,3.0674]}]]